contact:dominique.lefevre@mio.osupytheas.fr, maurice.libes@osupytheas.fr, didier.mallarino@osupytheas.fr
Project:EMSO http://www.emso-fr.org/EMSO-France
Depth: 2436.0 m
Title:EMSO Ligure Ouest : Data MII capteur MICROCAT
DateTime_Computer,Latitude,Longitude,Temperature,Conductivity,Pressure,DateTime_Instrument
DateTime_Computer,Latitude,Longitude,degC,S m-1,dbar,DateTime_Instrument
2023-05-11T00:00:06Z,42.805,6.029,13.3015,4.60072,2470.763,2023-5-11T02:03:18Z
2023-05-11T00:03:10Z,42.805,6.029,13.3018,4.60072,2470.754,2023-5-11T02:06:21Z
2023-05-11T00:06:13Z,42.805,6.029,13.3013,4.60072,2470.777,2023-5-11T02:09:24Z
2023-05-11T00:09:16Z,42.805,6.029,13.3016,4.60072,2470.763,2023-5-11T02:12:27Z
2023-05-11T00:12:19Z,42.805,6.029,13.3015,4.60073,2470.8,2023-5-11T02:15:30Z
2023-05-11T00:15:22Z,42.805,6.029,13.3016,4.60072,2470.787,2023-5-11T02:18:33Z
2023-05-11T00:18:25Z,42.805,6.029,13.3021,4.60072,2470.763,2023-5-11T02:21:36Z
2023-05-11T00:21:28Z,42.805,6.029,13.3019,4.60073,2470.787,2023-5-11T02:24:39Z
2023-05-11T00:24:31Z,42.805,6.029,13.3015,4.60072,2470.754,2023-5-11T02:27:42Z
2023-05-11T00:27:34Z,42.805,6.029,13.3013,4.60072,2470.763,2023-5-11T02:30:45Z
2023-05-11T00:30:37Z,42.805,6.029,13.3015,4.60072,2470.787,2023-5-11T02:33:48Z
2023-05-11T00:33:40Z,42.805,6.029,13.3015,4.60073,2470.717,2023-5-11T02:36:51Z
2023-05-11T00:36:43Z,42.805,6.029,13.3017,4.60073,2470.777,2023-5-11T02:39:54Z
2023-05-11T00:39:47Z,42.805,6.029,13.3018,4.60072,2470.777,2023-5-11T02:42:58Z
2023-05-11T00:42:50Z,42.805,6.029,13.3019,4.60077,2470.787,2023-5-11T02:46:01Z
2023-05-11T00:45:53Z,42.805,6.029,13.3015,4.60072,2470.763,2023-5-11T02:49:04Z
2023-05-11T00:48:56Z,42.805,6.029,13.3014,4.60072,2470.763,2023-5-11T02:52:07Z
2023-05-11T00:51:59Z,42.805,6.029,13.3017,4.60072,2470.763,2023-5-11T02:55:10Z
2023-05-11T00:55:02Z,42.805,6.029,13.3018,4.60073,2470.787,2023-5-11T02:58:13Z
2023-05-11T00:58:05Z,42.805,6.029,13.3015,4.60073,2470.824,2023-5-11T03:01:16Z
2023-05-11T01:01:08Z,42.805,6.029,13.3017,4.60074,2470.763,2023-5-11T03:04:19Z
2023-05-11T01:04:11Z,42.805,6.029,13.3017,4.60073,2470.763,2023-5-11T03:07:22Z
2023-05-11T01:07:14Z,42.805,6.029,13.3015,4.60072,2470.777,2023-5-11T03:10:25Z
2023-05-11T01:10:17Z,42.805,6.029,13.3016,4.60075,2470.74,2023-5-11T03:13:28Z
2023-05-11T01:13:20Z,42.805,6.029,13.3018,4.60073,2470.717,2023-5-11T03:16:32Z
2023-05-11T01:16:24Z,42.805,6.029,13.3014,4.60072,2470.693,2023-5-11T03:19:35Z
2023-05-11T01:19:27Z,42.805,6.029,13.3015,4.60072,2470.74,2023-5-11T03:22:38Z
2023-05-11T01:22:30Z,42.805,6.029,13.3019,4.60072,2470.74,2023-5-11T03:25:41Z
2023-05-11T01:25:33Z,42.805,6.029,13.3016,4.60072,2470.74,2023-5-11T03:28:44Z
2023-05-11T01:28:36Z,42.805,6.029,13.3013,4.60075,2470.74,2023-5-11T03:31:47Z
2023-05-11T01:31:39Z,42.805,6.029,13.3015,4.60072,2470.754,2023-5-11T03:34:50Z
2023-05-11T01:34:42Z,42.805,6.029,13.3016,4.60075,2470.717,2023-5-11T03:37:53Z
2023-05-11T01:37:45Z,42.805,6.029,13.3015,4.60073,2470.74,2023-5-11T03:40:56Z
2023-05-11T01:40:48Z,42.805,6.029,13.3015,4.60072,2470.754,2023-5-11T03:43:59Z
2023-05-11T01:43:51Z,42.805,6.029,13.3018,4.60072,2470.73,2023-5-11T03:47:02Z
2023-05-11T01:46:54Z,42.805,6.029,13.3014,4.60072,2470.74,2023-5-11T03:50:05Z
2023-05-11T01:49:57Z,42.805,6.029,13.3013,4.60072,2470.717,2023-5-11T03:53:09Z
2023-05-11T01:53:01Z,42.805,6.029,13.3016,4.60073,2470.717,2023-5-11T03:56:12Z
2023-05-11T01:56:04Z,42.805,6.029,13.3016,4.60072,2470.74,2023-5-11T03:59:15Z
2023-05-11T01:59:07Z,42.805,6.029,13.3016,4.60074,2470.754,2023-5-11T04:02:18Z
2023-05-11T02:02:10Z,42.805,6.029,13.3017,4.60073,2470.754,2023-5-11T04:05:21Z
2023-05-11T02:05:13Z,42.805,6.029,13.3016,4.60076,2470.754,2023-5-11T04:08:24Z
2023-05-11T02:08:16Z,42.805,6.029,13.3020,4.60076,2470.763,2023-5-11T04:11:27Z
2023-05-11T02:11:19Z,42.805,6.029,13.3014,4.60077,2470.74,2023-5-11T04:14:30Z
2023-05-11T02:14:22Z,42.805,6.029,13.3019,4.60073,2470.693,2023-5-11T04:17:33Z
2023-05-11T02:17:25Z,42.805,6.029,13.3014,4.60072,2470.726,2023-5-11T04:20:36Z
2023-05-11T02:20:28Z,42.805,6.029,13.3011,4.60073,2470.707,2023-5-11T04:23:39Z
2023-05-11T02:23:31Z,42.805,6.029,13.3019,4.60074,2470.717,2023-5-11T04:26:42Z
2023-05-11T02:26:34Z,42.805,6.029,13.3015,4.60077,2470.703,2023-5-11T04:29:46Z
2023-05-11T02:29:38Z,42.805,6.029,13.3014,4.60077,2470.717,2023-5-11T04:32:49Z
2023-05-11T02:32:41Z,42.805,6.029,13.3015,4.60075,2470.707,2023-5-11T04:35:52Z
2023-05-11T02:35:44Z,42.805,6.029,13.3021,4.60074,2470.717,2023-5-11T04:38:55Z
2023-05-11T02:38:47Z,42.805,6.029,13.3016,4.60072,2470.693,2023-5-11T04:41:58Z
2023-05-11T02:41:50Z,42.805,6.029,13.3019,4.60075,2470.693,2023-5-11T04:45:01Z
2023-05-11T02:44:53Z,42.805,6.029,13.3015,4.60072,2470.693,2023-5-11T04:48:04Z
2023-05-11T02:47:56Z,42.805,6.029,13.3020,4.60074,2470.74,2023-5-11T04:51:07Z
2023-05-11T02:50:59Z,42.805,6.029,13.3014,4.60072,2470.707,2023-5-11T04:54:10Z
2023-05-11T02:54:02Z,42.805,6.029,13.3016,4.60072,2470.707,2023-5-11T04:57:13Z
2023-05-11T02:57:05Z,42.805,6.029,13.3014,4.60075,2470.73,2023-5-11T05:00:16Z
2023-05-11T03:00:08Z,42.805,6.029,13.3021,4.60073,2470.707,2023-5-11T05:03:19Z
2023-05-11T03:03:11Z,42.805,6.029,13.3018,4.60077,2470.67,2023-5-11T05:06:22Z
2023-05-11T03:06:14Z,42.805,6.029,13.3014,4.60077,2470.693,2023-5-11T05:09:26Z
2023-05-11T03:09:18Z,42.805,6.029,13.3014,4.60074,2470.693,2023-5-11T05:12:29Z
2023-05-11T03:12:21Z,42.805,6.029,13.3015,4.60078,2470.67,2023-5-11T05:15:32Z
2023-05-11T03:15:24Z,42.805,6.029,13.3013,4.60075,2470.693,2023-5-11T05:18:35Z
2023-05-11T03:18:27Z,42.805,6.029,13.3019,4.60076,2470.693,2023-5-11T05:21:38Z
2023-05-11T03:21:30Z,42.805,6.029,13.3017,4.60072,2470.707,2023-5-11T05:24:41Z
2023-05-11T03:24:33Z,42.805,6.029,13.3018,4.60076,2470.707,2023-5-11T05:27:44Z
2023-05-11T03:27:36Z,42.805,6.029,13.3019,4.60079,2470.684,2023-5-11T05:30:47Z
2023-05-11T03:30:39Z,42.805,6.029,13.3014,4.60074,2470.684,2023-5-11T05:33:50Z
2023-05-11T03:33:42Z,42.805,6.029,13.3012,4.60071,2470.67,2023-5-11T05:36:53Z
2023-05-11T03:36:45Z,42.805,6.029,13.3015,4.60075,2470.67,2023-5-11T05:39:56Z
2023-05-11T03:39:48Z,42.805,6.029,13.3015,4.60077,2470.67,2023-5-11T05:43:00Z
2023-05-11T03:42:51Z,42.805,6.029,13.3019,4.60074,2470.707,2023-5-11T05:46:03Z
2023-05-11T03:45:55Z,42.805,6.029,13.3012,4.60074,2470.67,2023-5-11T05:49:06Z
2023-05-11T03:48:58Z,42.805,6.029,13.3015,4.60074,2470.661,2023-5-11T05:52:09Z
2023-05-11T03:52:01Z,42.805,6.029,13.3016,4.60074,2470.684,2023-5-11T05:55:12Z
2023-05-11T03:55:04Z,42.805,6.029,13.3018,4.60074,2470.637,2023-5-11T05:58:15Z
2023-05-11T03:58:07Z,42.805,6.029,13.3019,4.60073,2470.646,2023-5-11T06:01:18Z
2023-05-11T04:01:10Z,42.805,6.029,13.3014,4.60079,2470.67,2023-5-11T06:04:21Z
2023-05-11T04:04:13Z,42.805,6.029,13.3015,4.60081,2470.646,2023-5-11T06:07:24Z
2023-05-11T04:07:16Z,42.805,6.029,13.3015,4.60074,2470.67,2023-5-11T06:10:27Z
2023-05-11T04:10:19Z,42.805,6.029,13.3015,4.60073,2470.661,2023-5-11T06:13:30Z
2023-05-11T04:13:22Z,42.805,6.029,13.3015,4.60074,2470.624,2023-5-11T06:16:33Z
2023-05-11T04:16:25Z,42.805,6.029,13.3015,4.60077,2470.684,2023-5-11T06:19:36Z
2023-05-11T04:19:28Z,42.805,6.029,13.3018,4.60072,2470.646,2023-5-11T06:22:40Z
2023-05-11T04:22:32Z,42.805,6.029,13.3019,4.60075,2470.624,2023-5-11T06:25:43Z
2023-05-11T04:25:35Z,42.805,6.029,13.3016,4.60075,2470.684,2023-5-11T06:28:46Z
2023-05-11T04:28:38Z,42.805,6.029,13.3015,4.60073,2470.646,2023-5-11T06:31:49Z
2023-05-11T04:31:41Z,42.805,6.029,13.3014,4.60074,2470.646,2023-5-11T06:34:52Z
2023-05-11T04:34:44Z,42.805,6.029,13.3017,4.60075,2470.707,2023-5-11T06:37:55Z
2023-05-11T04:37:47Z,42.805,6.029,13.3014,4.60074,2470.684,2023-5-11T06:40:58Z
2023-05-11T04:40:50Z,42.805,6.029,13.3015,4.60075,2470.646,2023-5-11T06:44:01Z
2023-05-11T04:43:53Z,42.805,6.029,13.3022,4.60075,2470.646,2023-5-11T06:47:04Z
2023-05-11T04:46:56Z,42.805,6.029,13.3017,4.60078,2470.661,2023-5-11T06:50:07Z
2023-05-11T04:49:59Z,42.805,6.029,13.3015,4.60074,2470.646,2023-5-11T06:53:10Z
2023-05-11T04:53:02Z,42.805,6.029,13.3016,4.60075,2470.661,2023-5-11T06:56:14Z
2023-05-11T04:56:05Z,42.805,6.029,13.3014,4.60076,2470.61,2023-5-11T06:59:17Z
2023-05-11T04:59:09Z,42.805,6.029,13.3015,4.60074,2470.646,2023-5-11T07:02:20Z
2023-05-11T05:02:12Z,42.805,6.029,13.3017,4.60074,2470.646,2023-5-11T07:05:23Z
2023-05-11T05:05:15Z,42.805,6.029,13.3015,4.60076,2470.637,2023-5-11T07:08:26Z
2023-05-11T05:08:18Z,42.805,6.029,13.3021,4.60076,2470.637,2023-5-11T07:11:29Z
2023-05-11T05:11:21Z,42.805,6.029,13.3017,4.60074,2470.614,2023-5-11T07:14:32Z
2023-05-11T05:14:24Z,42.805,6.029,13.3017,4.60074,2470.624,2023-5-11T07:17:35Z
2023-05-11T05:17:27Z,42.805,6.029,13.3019,4.60074,2470.624,2023-5-11T07:20:38Z
2023-05-11T05:20:30Z,42.805,6.029,13.3016,4.60077,2470.6,2023-5-11T07:23:41Z
2023-05-11T05:23:33Z,42.805,6.029,13.3015,4.60074,2470.661,2023-5-11T07:26:44Z
2023-05-11T05:26:36Z,42.805,6.029,13.3014,4.60076,2470.6,2023-5-11T07:29:47Z
2023-05-11T05:29:39Z,42.805,6.029,13.3017,4.60072,2470.646,2023-5-11T07:32:50Z
2023-05-11T05:32:42Z,42.805,6.029,13.3014,4.60070,2470.624,2023-5-11T07:35:54Z
2023-05-11T05:35:45Z,42.805,6.029,13.3019,4.60076,2470.624,2023-5-11T07:38:57Z
2023-05-11T05:38:49Z,42.805,6.029,13.3015,4.60078,2470.624,2023-5-11T07:42:00Z
2023-05-11T05:41:52Z,42.805,6.029,13.3014,4.60076,2470.6,2023-5-11T07:45:03Z
2023-05-11T05:44:55Z,42.805,6.029,13.3019,4.60074,2470.6,2023-5-11T07:48:06Z
2023-05-11T05:47:58Z,42.805,6.029,13.3016,4.60077,2470.591,2023-5-11T07:51:09Z
2023-05-11T05:51:01Z,42.805,6.029,13.3014,4.60077,2470.577,2023-5-11T07:54:12Z
2023-05-11T05:54:04Z,42.805,6.029,13.3012,4.60075,2470.591,2023-5-11T07:57:15Z
2023-05-11T05:57:07Z,42.805,6.029,13.3014,4.60081,2470.577,2023-5-11T08:00:18Z
2023-05-11T06:00:10Z,42.805,6.029,13.3015,4.60078,2470.614,2023-5-11T08:03:21Z
2023-05-11T06:03:13Z,42.805,6.029,13.3015,4.60074,2470.6,2023-5-11T08:06:24Z
2023-05-11T06:06:16Z,42.805,6.029,13.3016,4.60077,2470.624,2023-5-11T08:09:27Z
2023-05-11T06:09:19Z,42.805,6.029,13.3016,4.60074,2470.624,2023-5-11T08:12:31Z
2023-05-11T06:12:22Z,42.805,6.029,13.3014,4.60078,2470.614,2023-5-11T08:15:34Z
2023-05-11T06:15:26Z,42.805,6.029,13.3020,4.60077,2470.577,2023-5-11T08:18:37Z
2023-05-11T06:18:29Z,42.805,6.029,13.3014,4.60074,2470.6,2023-5-11T08:21:40Z
2023-05-11T06:21:32Z,42.805,6.029,13.3015,4.60075,2470.614,2023-5-11T08:24:43Z
2023-05-11T06:24:35Z,42.805,6.029,13.3014,4.60074,2470.6,2023-5-11T08:27:46Z
2023-05-11T06:27:38Z,42.805,6.029,13.3009,4.60076,2470.6,2023-5-11T08:30:49Z
2023-05-11T06:30:41Z,42.805,6.029,13.3016,4.60074,2470.577,2023-5-11T08:33:52Z
2023-05-11T06:33:44Z,42.805,6.029,13.3014,4.60072,2470.577,2023-5-11T08:36:55Z
2023-05-11T06:36:47Z,42.805,6.029,13.3018,4.60078,2470.6,2023-5-11T08:39:58Z
2023-05-11T06:39:50Z,42.805,6.029,13.3019,4.60075,2470.646,2023-5-11T08:43:01Z
2023-05-11T06:42:53Z,42.805,6.029,13.3015,4.60076,2470.614,2023-5-11T08:46:04Z
2023-05-11T06:45:56Z,42.805,6.029,13.3014,4.60076,2470.637,2023-5-11T08:49:08Z
2023-05-11T06:48:59Z,42.805,6.029,13.3017,4.60076,2470.6,2023-5-11T08:52:11Z
2023-05-11T06:52:03Z,42.805,6.029,13.3017,4.60074,2470.6,2023-5-11T08:55:14Z
2023-05-11T06:55:06Z,42.805,6.029,13.3014,4.60078,2470.6,2023-5-11T08:58:17Z
2023-05-11T06:58:09Z,42.805,6.029,13.3018,4.60075,2470.624,2023-5-11T09:01:20Z
2023-05-11T07:01:12Z,42.805,6.029,13.3016,4.60075,2470.6,2023-5-11T09:04:23Z
2023-05-11T07:04:15Z,42.805,6.029,13.3019,4.60075,2470.6,2023-5-11T09:07:26Z
2023-05-11T07:07:18Z,42.805,6.029,13.3015,4.60075,2470.6,2023-5-11T09:10:29Z
2023-05-11T07:10:21Z,42.805,6.029,13.3016,4.60076,2470.624,2023-5-11T09:13:32Z
2023-05-11T07:13:24Z,42.805,6.029,13.3015,4.60074,2470.6,2023-5-11T09:16:35Z
2023-05-11T07:16:27Z,42.805,6.029,13.3014,4.60074,2470.6,2023-5-11T09:19:38Z
2023-05-11T07:19:30Z,42.805,6.029,13.3017,4.60078,2470.624,2023-5-11T09:22:41Z
2023-05-11T07:22:33Z,42.805,6.029,13.3014,4.60078,2470.6,2023-5-11T09:25:45Z
2023-05-11T07:25:36Z,42.805,6.029,13.3017,4.60077,2470.614,2023-5-11T09:28:48Z
2023-05-11T07:28:39Z,42.805,6.029,13.3015,4.60075,2470.637,2023-5-11T09:31:51Z
2023-05-11T07:31:43Z,42.805,6.029,13.3014,4.60074,2470.614,2023-5-11T09:34:54Z
2023-05-11T07:34:46Z,42.805,6.029,13.3016,4.60074,2470.6,2023-5-11T09:37:57Z
2023-05-11T07:37:49Z,42.805,6.029,13.3015,4.60077,2470.6,2023-5-11T09:41:00Z
2023-05-11T07:40:52Z,42.805,6.029,13.3019,4.60074,2470.624,2023-5-11T09:44:03Z
2023-05-11T07:43:55Z,42.805,6.029,13.3014,4.60074,2470.637,2023-5-11T09:47:06Z
2023-05-11T07:46:58Z,42.805,6.029,13.3018,4.60076,2470.646,2023-5-11T09:50:09Z
2023-05-11T07:50:01Z,42.805,6.029,13.3015,4.60076,2470.624,2023-5-11T09:53:12Z
2023-05-11T07:53:04Z,42.805,6.029,13.3017,4.60075,2470.6,2023-5-11T09:56:15Z
2023-05-11T07:56:07Z,42.805,6.029,13.3015,4.60076,2470.661,2023-5-11T09:59:18Z
2023-05-11T07:59:10Z,42.805,6.029,13.3015,4.60074,2470.67,2023-5-11T10:02:21Z
2023-05-11T08:02:13Z,42.805,6.029,13.3019,4.60075,2470.637,2023-5-11T10:05:25Z
2023-05-11T08:05:16Z,42.805,6.029,13.3016,4.60077,2470.637,2023-5-11T10:08:28Z
2023-05-11T08:08:20Z,42.805,6.029,13.3015,4.60078,2470.624,2023-5-11T10:11:31Z
2023-05-11T08:11:23Z,42.805,6.029,13.3012,4.60076,2470.6,2023-5-11T10:14:34Z
2023-05-11T08:14:26Z,42.805,6.029,13.3015,4.60075,2470.624,2023-5-11T10:17:37Z
2023-05-11T08:17:29Z,42.805,6.029,13.3015,4.60079,2470.624,2023-5-11T10:20:40Z
2023-05-11T08:20:32Z,42.805,6.029,13.3014,4.60077,2470.637,2023-5-11T10:23:43Z
2023-05-11T08:23:35Z,42.805,6.029,13.3015,4.60080,2470.6,2023-5-11T10:26:46Z
2023-05-11T08:26:38Z,42.805,6.029,13.3014,4.60078,2470.614,2023-5-11T10:29:49Z
2023-05-11T08:29:41Z,42.805,6.029,13.3015,4.60079,2470.637,2023-5-11T10:32:52Z
2023-05-11T08:32:42Z,42.805,6.029,13.3014,4.60075,2470.661,2023-5-11T10:35:54Z
2023-05-11T08:35:45Z,42.805,6.029,13.3014,4.60076,2470.624,2023-5-11T10:38:57Z
2023-05-11T08:38:49Z,42.805,6.029,13.3018,4.60074,2470.624,2023-5-11T10:42:00Z
2023-05-11T08:41:52Z,42.805,6.029,13.3015,4.60077,2470.637,2023-5-11T10:45:03Z
2023-05-11T08:44:55Z,42.805,6.029,13.3018,4.60079,2470.646,2023-5-11T10:48:06Z
2023-05-11T08:47:58Z,42.805,6.029,13.3016,4.60078,2470.646,2023-5-11T10:51:09Z
2023-05-11T08:51:01Z,42.805,6.029,13.3018,4.60079,2470.6,2023-5-11T10:54:12Z
2023-05-11T08:54:04Z,42.805,6.029,13.3014,4.60077,2470.624,2023-5-11T10:57:15Z
2023-05-11T08:57:07Z,42.805,6.029,13.3018,4.60079,2470.661,2023-5-11T11:00:18Z
2023-05-11T09:00:10Z,42.805,6.029,13.3012,4.60078,2470.637,2023-5-11T11:03:21Z
2023-05-11T09:03:13Z,42.805,6.029,13.3017,4.60079,2470.624,2023-5-11T11:06:24Z
2023-05-11T09:06:16Z,42.805,6.029,13.3017,4.60079,2470.637,2023-5-11T11:09:27Z
2023-05-11T09:09:19Z,42.805,6.029,13.3016,4.60079,2470.624,2023-5-11T11:12:31Z
2023-05-11T09:12:22Z,42.805,6.029,13.3019,4.60078,2470.646,2023-5-11T11:15:34Z
2023-05-11T09:15:25Z,42.805,6.029,13.3014,4.60081,2470.661,2023-5-11T11:18:37Z
2023-05-11T09:18:29Z,42.805,6.029,13.3015,4.60084,2470.6,2023-5-11T11:21:40Z
2023-05-11T09:21:32Z,42.805,6.029,13.3018,4.60076,2470.646,2023-5-11T11:24:43Z
2023-05-11T09:24:35Z,42.805,6.029,13.3015,4.60076,2470.646,2023-5-11T11:27:46Z
2023-05-11T09:27:38Z,42.805,6.029,13.3017,4.60077,2470.661,2023-5-11T11:30:49Z
2023-05-11T09:30:41Z,42.805,6.029,13.3015,4.60080,2470.67,2023-5-11T11:33:52Z
2023-05-11T09:33:44Z,42.805,6.029,13.3014,4.60080,2470.633,2023-5-11T11:36:55Z
2023-05-11T09:36:47Z,42.805,6.029,13.3015,4.60080,2470.624,2023-5-11T11:39:58Z
2023-05-11T09:39:50Z,42.805,6.029,13.3017,4.60080,2470.67,2023-5-11T11:43:01Z
2023-05-11T09:42:53Z,42.805,6.029,13.3015,4.60082,2470.67,2023-5-11T11:46:04Z
2023-05-11T09:45:56Z,42.805,6.029,13.3023,4.60079,2470.661,2023-5-11T11:49:08Z
2023-05-11T09:48:59Z,42.805,6.029,13.3017,4.60081,2470.624,2023-5-11T11:52:11Z
2023-05-11T09:52:02Z,42.805,6.029,13.3016,4.60082,2470.637,2023-5-11T11:55:14Z
2023-05-11T09:55:06Z,42.805,6.029,13.3016,4.60082,2470.637,2023-5-11T11:58:17Z
2023-05-11T09:58:09Z,42.805,6.029,13.3017,4.60077,2470.661,2023-5-11T12:01:20Z
2023-05-11T10:01:12Z,42.805,6.029,13.3021,4.60076,2470.646,2023-5-11T12:04:23Z
2023-05-11T10:04:15Z,42.805,6.029,13.3015,4.60076,2470.661,2023-5-11T12:07:26Z
2023-05-11T10:07:18Z,42.805,6.029,13.3014,4.60080,2470.637,2023-5-11T12:10:29Z
2023-05-11T10:10:21Z,42.805,6.029,13.3019,4.60077,2470.661,2023-5-11T12:13:32Z
2023-05-11T10:13:24Z,42.805,6.029,13.3011,4.60079,2470.646,2023-5-11T12:16:35Z
2023-05-11T10:16:27Z,42.805,6.029,13.3016,4.60079,2470.646,2023-5-11T12:19:38Z
2023-05-11T10:19:30Z,42.805,6.029,13.3016,4.60081,2470.646,2023-5-11T12:22:41Z
2023-05-11T10:22:33Z,42.805,6.029,13.3015,4.60081,2470.661,2023-5-11T12:25:45Z
2023-05-11T10:25:36Z,42.805,6.029,13.3021,4.60082,2470.637,2023-5-11T12:28:48Z
2023-05-11T10:28:39Z,42.805,6.029,13.3014,4.60080,2470.646,2023-5-11T12:31:51Z
2023-05-11T10:31:41Z,42.805,6.029,13.3017,4.60079,2470.684,2023-5-11T12:34:52Z
2023-05-11T10:34:44Z,42.805,6.029,13.3013,4.60079,2470.646,2023-5-11T12:37:55Z
2023-05-11T10:37:47Z,42.805,6.029,13.3012,4.60079,2470.67,2023-5-11T12:40:58Z
2023-05-11T10:40:50Z,42.805,6.029,13.3016,4.60079,2470.646,2023-5-11T12:44:01Z
2023-05-11T10:43:53Z,42.805,6.029,13.3014,4.60079,2470.624,2023-5-11T12:47:05Z
2023-05-11T10:46:56Z,42.805,6.029,13.3019,4.60077,2470.624,2023-5-11T12:50:08Z
2023-05-11T10:49:59Z,42.805,6.029,13.3019,4.60080,2470.646,2023-5-11T12:53:11Z
2023-05-11T10:53:03Z,42.805,6.029,13.3018,4.60081,2470.646,2023-5-11T12:56:14Z
2023-05-11T10:56:06Z,42.805,6.029,13.3021,4.60087,2470.646,2023-5-11T12:59:17Z
2023-05-11T10:59:09Z,42.805,6.029,13.3011,4.60093,2470.624,2023-5-11T13:02:20Z
2023-05-11T11:02:12Z,42.805,6.029,13.3014,4.60087,2470.661,2023-5-11T13:05:23Z
2023-05-11T11:05:15Z,42.805,6.029,13.3012,4.60081,2470.624,2023-5-11T13:08:26Z
2023-05-11T11:08:18Z,42.805,6.029,13.3015,4.60081,2470.646,2023-5-11T13:11:29Z
2023-05-11T11:11:21Z,42.805,6.029,13.3020,4.60086,2470.646,2023-5-11T13:14:32Z
2023-05-11T11:14:24Z,42.805,6.029,13.3017,4.60084,2470.646,2023-5-11T13:17:35Z
2023-05-11T11:17:27Z,42.805,6.029,13.3014,4.60085,2470.661,2023-5-11T13:20:39Z
2023-05-11T11:20:30Z,42.805,6.029,13.3018,4.60082,2470.624,2023-5-11T13:23:42Z
2023-05-11T11:23:33Z,42.805,6.029,13.3013,4.60093,2470.67,2023-5-11T13:26:45Z
2023-05-11T11:26:37Z,42.805,6.029,13.3014,4.60087,2470.6,2023-5-11T13:29:48Z
2023-05-11T11:29:40Z,42.805,6.029,13.3011,4.60086,2470.646,2023-5-11T13:32:51Z
2023-05-11T11:32:43Z,42.805,6.029,13.3014,4.60079,2470.646,2023-5-11T13:35:54Z
2023-05-11T11:35:46Z,42.805,6.029,13.3017,4.60077,2470.637,2023-5-11T13:38:57Z
2023-05-11T11:38:49Z,42.805,6.029,13.3013,4.60079,2470.624,2023-5-11T13:42:00Z
2023-05-11T11:41:52Z,42.805,6.029,13.3018,4.60077,2470.67,2023-5-11T13:45:03Z
2023-05-11T11:44:55Z,42.805,6.029,13.3017,4.60084,2470.646,2023-5-11T13:48:06Z
2023-05-11T11:47:58Z,42.805,6.029,13.3016,4.60085,2470.624,2023-5-11T13:51:09Z
2023-05-11T11:51:01Z,42.805,6.029,13.3014,4.60081,2470.624,2023-5-11T13:54:12Z
2023-05-11T11:54:04Z,42.805,6.029,13.3016,4.60079,2470.646,2023-5-11T13:57:16Z
2023-05-11T11:57:07Z,42.805,6.029,13.3015,4.60081,2470.661,2023-5-11T14:00:19Z
2023-05-11T12:00:10Z,42.805,6.029,13.3019,4.60086,2470.661,2023-5-11T14:03:22Z
2023-05-11T12:03:14Z,42.805,6.029,13.3018,4.60081,2470.646,2023-5-11T14:06:25Z
2023-05-11T12:06:17Z,42.805,6.029,13.3015,4.60086,2470.646,2023-5-11T14:09:28Z
2023-05-11T12:09:20Z,42.805,6.029,13.3017,4.60082,2470.624,2023-5-11T14:12:31Z
2023-05-11T12:12:23Z,42.805,6.029,13.3018,4.60079,2470.624,2023-5-11T14:15:34Z
2023-05-11T12:15:26Z,42.805,6.029,13.3019,4.60085,2470.661,2023-5-11T14:18:37Z
2023-05-11T12:18:29Z,42.805,6.029,13.3015,4.60084,2470.661,2023-5-11T14:21:40Z
2023-05-11T12:21:32Z,42.805,6.029,13.3017,4.60085,2470.661,2023-5-11T14:24:43Z
2023-05-11T12:24:35Z,42.805,6.029,13.3016,4.60084,2470.67,2023-5-11T14:27:46Z
2023-05-11T12:27:38Z,42.805,6.029,13.3017,4.60082,2470.624,2023-5-11T14:30:50Z
2023-05-11T12:30:41Z,42.805,6.029,13.3016,4.60086,2470.633,2023-5-11T14:33:53Z
2023-05-11T12:33:44Z,42.805,6.029,13.3016,4.60083,2470.661,2023-5-11T14:36:56Z
2023-05-11T12:36:47Z,42.805,6.029,13.3014,4.60087,2470.624,2023-5-11T14:39:59Z
2023-05-11T12:39:51Z,42.805,6.029,13.3018,4.60084,2470.624,2023-5-11T14:43:02Z
2023-05-11T12:42:54Z,42.805,6.029,13.3015,4.60087,2470.67,2023-5-11T14:46:05Z
2023-05-11T12:45:57Z,42.805,6.029,13.3015,4.60078,2470.624,2023-5-11T14:49:08Z
2023-05-11T12:49:00Z,42.805,6.029,13.3018,4.60080,2470.624,2023-5-11T14:52:11Z
2023-05-11T12:52:03Z,42.805,6.029,13.3017,4.60080,2470.624,2023-5-11T14:55:14Z
2023-05-11T12:55:06Z,42.805,6.029,13.3022,4.60091,2470.637,2023-5-11T14:58:17Z
2023-05-11T12:58:09Z,42.805,6.029,13.3015,4.60089,2470.624,2023-5-11T15:01:20Z
2023-05-11T13:01:12Z,42.805,6.029,13.3015,4.60084,2470.624,2023-5-11T15:04:24Z
2023-05-11T13:04:15Z,42.805,6.029,13.3013,4.60079,2470.577,2023-5-11T15:07:27Z
2023-05-11T13:07:18Z,42.805,6.029,13.3015,4.60081,2470.624,2023-5-11T15:10:30Z
2023-05-11T13:10:21Z,42.805,6.029,13.3016,4.60080,2470.637,2023-5-11T15:13:33Z
2023-05-11T13:13:25Z,42.805,6.029,13.3015,4.60081,2470.6,2023-5-11T15:16:36Z
2023-05-11T13:16:28Z,42.805,6.029,13.3012,4.60078,2470.624,2023-5-11T15:19:39Z
2023-05-11T13:19:31Z,42.805,6.029,13.3017,4.60077,2470.624,2023-5-11T15:22:42Z
2023-05-11T13:22:34Z,42.805,6.029,13.3019,4.60077,2470.614,2023-5-11T15:25:45Z
2023-05-11T13:25:37Z,42.805,6.029,13.3017,4.60079,2470.6,2023-5-11T15:28:48Z
2023-05-11T13:28:40Z,42.805,6.029,13.3017,4.60081,2470.6,2023-5-11T15:31:51Z
2023-05-11T13:31:43Z,42.805,6.029,13.3019,4.60084,2470.637,2023-5-11T15:34:54Z
2023-05-11T13:34:46Z,42.805,6.029,13.3016,4.60080,2470.6,2023-5-11T15:37:57Z
2023-05-11T13:37:49Z,42.805,6.029,13.3019,4.60078,2470.624,2023-5-11T15:41:01Z
2023-05-11T13:40:52Z,42.805,6.029,13.3014,4.60079,2470.6,2023-5-11T15:44:04Z
2023-05-11T13:43:55Z,42.805,6.029,13.3018,4.60083,2470.624,2023-5-11T15:47:07Z
2023-05-11T13:46:58Z,42.805,6.029,13.3015,4.60074,2470.6,2023-5-11T15:50:10Z
2023-05-11T13:50:02Z,42.805,6.029,13.3016,4.60077,2470.577,2023-5-11T15:53:13Z
2023-05-11T13:53:05Z,42.805,6.029,13.3020,4.60077,2470.614,2023-5-11T15:56:16Z
2023-05-11T13:56:08Z,42.805,6.029,13.3019,4.60077,2470.624,2023-5-11T15:59:19Z
2023-05-11T13:59:11Z,42.805,6.029,13.3019,4.60079,2470.6,2023-5-11T16:02:22Z
2023-05-11T14:02:14Z,42.805,6.029,13.3015,4.60079,2470.637,2023-5-11T16:05:25Z
2023-05-11T14:05:17Z,42.805,6.029,13.3015,4.60085,2470.6,2023-5-11T16:08:28Z
2023-05-11T14:08:20Z,42.805,6.029,13.3014,4.60079,2470.624,2023-5-11T16:11:31Z
2023-05-11T14:11:23Z,42.805,6.029,13.3021,4.60080,2470.577,2023-5-11T16:14:34Z
2023-05-11T14:14:26Z,42.805,6.029,13.3016,4.60076,2470.6,2023-5-11T16:17:38Z
2023-05-11T14:17:29Z,42.805,6.029,13.3020,4.60081,2470.6,2023-5-11T16:20:41Z
2023-05-11T14:20:32Z,42.805,6.029,13.3019,4.60082,2470.614,2023-5-11T16:23:44Z
2023-05-11T14:23:35Z,42.805,6.029,13.3015,4.60079,2470.577,2023-5-11T16:26:47Z
2023-05-11T14:26:39Z,42.805,6.029,13.3014,4.60074,2470.637,2023-5-11T16:29:50Z
2023-05-11T14:29:42Z,42.805,6.029,13.3015,4.60077,2470.624,2023-5-11T16:32:53Z
2023-05-11T14:32:44Z,42.805,6.029,13.3015,4.60075,2470.577,2023-5-11T16:35:55Z
2023-05-11T14:35:47Z,42.805,6.029,13.3014,4.60078,2470.624,2023-5-11T16:38:58Z
2023-05-11T14:38:50Z,42.805,6.029,13.3014,4.60074,2470.577,2023-5-11T16:42:01Z
2023-05-11T14:41:53Z,42.805,6.029,13.3015,4.60074,2470.624,2023-5-11T16:45:04Z
2023-05-11T14:44:56Z,42.805,6.029,13.3015,4.60074,2470.624,2023-5-11T16:48:07Z
2023-05-11T14:47:59Z,42.805,6.029,13.3014,4.60076,2470.6,2023-5-11T16:51:10Z
2023-05-11T14:51:02Z,42.805,6.029,13.3019,4.60074,2470.6,2023-5-11T16:54:13Z
2023-05-11T14:54:05Z,42.805,6.029,13.3021,4.60077,2470.591,2023-5-11T16:57:17Z
2023-05-11T14:57:08Z,42.805,6.029,13.3018,4.60076,2470.6,2023-5-11T17:00:20Z
2023-05-11T15:00:11Z,42.805,6.029,13.3015,4.60077,2470.577,2023-5-11T17:03:23Z
2023-05-11T15:03:14Z,42.805,6.029,13.3016,4.60078,2470.577,2023-5-11T17:06:26Z
2023-05-11T15:06:18Z,42.805,6.029,13.3019,4.60077,2470.6,2023-5-11T17:09:29Z
2023-05-11T15:09:21Z,42.805,6.029,13.3014,4.60081,2470.6,2023-5-11T17:12:32Z
2023-05-11T15:12:24Z,42.805,6.029,13.3015,4.60076,2470.577,2023-5-11T17:15:35Z